{"data":{"norad_id":59804,"intl_designator":"2024-093Y","name":"STARLINK-31824","alt_names":[],"object_type":"PAYLOAD","status":"ACTIVE","operator":null,"country":"US","launch_date":"2024-05-18","launch_site_code":"AFETR","launch_vehicle":null,"mission":null,"orbit_class":"UNKNOWN","rcs_meters":null,"size_class":null,"mass_kg":null,"dimensions":null,"purposes":["comms"],"wikipedia_slug":null,"has_3d_model":false,"image_url":null,"decayed_at":null,"tle_current":{"epoch":"2026-05-25T00:03:27.194976Z","epoch_age_seconds":71974,"freshness":"FRESH","line1":"1 59804U 24093Y   26145.00239809 -.00005500  00000+0 -19046-3 0  9997","line2":"2 59804  43.0009 138.1599 0001314 269.8555  90.2146 15.27582905114360","mean_motion":15.27582905,"eccentricity":0.0001314,"inclination_deg":43.0009,"raan_deg":138.1599,"arg_perigee_deg":269.8555,"mean_anomaly_deg":90.2146,"bstar":-0.00019046,"rev_number":11436,"period_min":94.266569446848,"perigee_km":482.13883872835,"apogee_km":483.94195614839,"semimajor_km":6861.1773974384,"source":"CELESTRAK","updated_at":"2026-05-25T13:38:19.084673Z"}}}